[[{"header":{"parameterUnit":"m.s-1","parameterCategory":1,"la1":30.2991,"la2":30.254,"lo1":-89.0895,"lo2":-89.0444,"dy":0.0017,"dx":0.0017,"nx":28,"ny":28,"refTime":"2025-03-15T09:00:00:Z","depth":0,"parameterNumber":2,"parameterNumberName":"U-component_of_WINDS"},"data":[0,0,0,0,0,0,0,0,0,0,0,0,0,0,0,0,0,0,0,0,0,0,0,0,0,0,0,0,0,0,0,0,0,0,0,0,0,0,0,0,0,0,0,0,0,0,0,0,0,0,0,0,0,0,0,0,0,0,6.1953,6.1954,0,6.2076,6.2078,6.2079,6.2037,6.2034,6.2032,6.2029,6.2157,6.2163,6.2169,0,0,0,0,0,0,0,0,0,0,0,0,0,6.1684,6.1689,6.1953,6.1954,6.1956,6.2076,6.2078,6.2079,6.2038,6.2034,6.2031,6.2028,6.2155,6.2162,6.2169,0,0,0,0,0,0,0,0,0,0,0,0,0,6.1803,6.1691,6.1952,6.1949,6.195,6.2076,6.2078,6.208,6.2038,6.2034,6.203,6.2026,6.2153,6.2161,6.217,6.2306,0,0,6.2197,6.2201,0,0,0,0,0,0,0,0,6.1797,6.1813,6.1948,6.195,6.1951,6.2037,6.203,6.2156,6.2039,6.2005,6.2029,6.2024,6.212,6.2132,6.2164,6.2312,6.2318,6.2198,6.2204,6.2207,6.221,0,0,0,0,0,0,0,6.1788,6.1808,6.2002,6.195,6.1952,6.1943,6.1955,6.2054,6.2084,6.2008,6.2005,6.202,6.212,6.2155,6.2167,6.232,6.2198,6.2206,6.2211,6.2215,6.2591,6.2596,0,0,0,0,0,0,6.1779,6.1801,6.1998,6.2005,6.1862,6.1951,6.1965,6.2014,6.2083,6.2089,6.2023,6.2018,6.2142,6.2156,6.2171,6.2338,6.2207,6.2216,6.2221,6.2587,6.2592,6.2597,0,0,0,0,0,0,6.1773,6.1797,6.1993,6.1903,6.1927,6.196,6.2015,6.2018,6.2053,6.2095,6.21,6.2053,6.214,6.2158,6.2274,6.2342,6.222,6.2228,6.2581,6.2588,6.2595,6.2672,0,0,0,0,0,0,6.1766,6.1795,6.1846,6.1904,6.1932,6.2093,6.2019,6.2024,6.2068,6.2062,6.2124,6.2131,6.2138,6.2261,6.2283,6.2352,6.2235,6.2575,6.2584,6.2592,6.2663,6.268,6.2695,0,0,0,0,0,6.1756,6.1862,6.1849,6.1873,6.1996,6.2097,6.2113,6.2118,6.2074,6.2127,6.2154,6.2129,6.2331,6.2273,6.2297,6.237,6.2571,6.2582,6.2592,6.2656,6.2677,6.2695,0,0,0,0,0,0,6.1811,6.187,6.1855,6.1983,6.2035,6.2089,6.2155,6.214,6.2206,6.2197,6.2202,6.2216,6.2336,6.2364,6.2299,6.2508,6.2444,6.246,6.2485,6.2505,6.2521,6.2512,6.2242,0,0,0,0,0,6.1838,6.1914,6.1961,6.2069,6.2096,6.2122,6.2165,6.2166,6.222,6.2242,6.2278,6.2332,6.2408,6.2458,6.253,6.2667,6.2682,6.273,6.2745,6.2758,6.2772,6.2851,6.2873,6.2632,6.2632,6.2631,0,0,6.1894,6.1935,6.1983,6.2081,6.2122,6.2202,6.214,6.2227,6.2287,6.2255,6.2367,6.2396,6.2457,6.2585,6.2643,6.2612,6.2843,6.2772,6.2782,6.2789,6.2864,6.2887,6.2907,6.2639,6.2637,6.2636,0,0,6.2038,6.2076,6.2172,6.2214,6.2277,6.2294,6.2317,6.2374,6.2392,6.2505,6.2484,6.2556,6.2686,6.2732,6.2772,6.2938,6.2918,6.2961,6.3044,6.3121,6.314,6.3157,6.3219,6.324,6.2974,6.2975,6.2975,0,6.21,6.2219,6.2223,6.2313,6.2358,6.2334,6.2433,6.2473,6.2557,6.2589,6.2553,6.2719,6.2758,6.2898,6.2939,6.2971,6.3,6.2954,6.3137,6.3154,6.317,6.3229,6.3252,6.298,6.2979,6.2979,6.2978,0,6.2294,6.2377,6.2448,6.253,6.2583,6.2676,6.2696,6.275,6.2746,6.2767,6.2884,6.2931,6.3014,6.3047,6.3044,6.3188,6.3168,6.3134,6.3071,6.3198,6.3253,6.3276,6.2987,6.2985,6.2983,6.2982,0,0,6.2474,6.256,6.2586,6.2624,6.2693,6.2758,6.2852,6.2933,6.298,6.3039,6.312,6.3232,6.3203,6.3249,6.3251,6.3318,6.345,6.3277,6.3279,6.331,6.3616,6.3642,6.3668,6.3437,6.3442,6.3445,6.3612,0,6.2626,6.279,6.2798,6.2949,6.3028,6.3007,6.309,6.3142,6.3165,6.3237,6.3262,6.3343,6.3297,6.3325,6.339,6.342,6.3512,6.3408,6.3515,6.3518,6.3501,6.3696,6.3723,6.3878,6.3633,6.3637,6.3639,0,6.2824,6.2891,6.3049,6.311,6.3144,6.3217,6.3294,6.3362,6.3422,6.3435,6.3488,6.3481,6.358,6.3513,6.365,6.358,6.3624,6.3646,6.3652,6.3663,6.3587,6.3715,6.3927,6.3951,6.3673,6.367,6.3668,0,6.2943,6.3072,6.3185,6.3218,6.3291,6.3344,6.3377,6.3433,6.3483,6.355,6.3583,6.3661,6.3705,6.3767,6.3782,6.3731,6.3921,6.3854,6.3936,6.3936,6.3978,6.3975,6.4202,6.4003,6.4003,6.4003,6.4002,0,6.3113,6.3211,6.324,6.3309,6.342,6.3429,6.3539,6.3568,6.3619,6.3695,6.3682,6.3754,6.377,6.3846,6.3859,6.3973,6.3992,6.4007,6.4009,6.4009,6.4007,6.4039,6.4029,6.4009,6.4007,6.4006,6.4005,0,6.3265,6.3287,6.3409,6.3469,6.3487,6.3566,6.3618,6.3686,6.3708,6.3805,6.3829,6.3864,6.3953,6.3975,6.4081,6.409,6.4226,6.4217,6.4206,6.4206,6.4287,6.428,6.4543,6.458,6.4356,6.4358,6.4359,0,6.3372,6.3448,6.3517,6.3567,6.3603,6.3683,6.3735,6.3748,6.3802,6.3878,6.3937,6.4025,6.4096,6.4239,6.4276,6.4358,6.4352,6.4439,6.4364,6.4363,6.4357,6.4353,6.4362,6.4453,6.4456,6.4458,6.4459,0,6.3562,6.357,6.3644,6.3723,6.3785,6.3848,6.3908,6.395,6.3972,6.4034,6.4125,6.418,6.4289,6.4378,6.4461,6.4496,6.4483,6.4482,6.4506,6.4507,6.4499,6.4507,6.4246,6.4476,6.4475,6.4473,6.4472,6.4472,6.3696,6.3764,6.3824,6.3908,6.3955,6.4012,6.408,6.4111,6.4188,6.4278,6.4281,6.4381,6.4442,6.4553,6.4593,6.4673,6.4647,6.4681,6.469,6.4698,6.4707,6.4485,6.4688,6.4688,6.4687,6.4687,6.4686,0,6.3887,6.3926,6.4003,6.4088,6.4155,6.4136,6.4203,6.426,6.4348,6.4406,6.4477,6.4584,6.467,6.4714,6.48,6.4856,6.4852,6.4879,6.4875,6.4885,6.4724,6.4696,6.488,6.488,6.488,6.488,6.488,6.488,6.3995,6.4109,6.4125,6.4264,6.4301,6.44,6.444,6.4494,6.454,6.466,6.4732,6.476,6.4814,6.4904,6.4983,6.4994,6.5028,6.5058,6.5066,6.4915,6.4895,6.4877,6.485,6.5064,6.5065,6.522,6.5222,6.5223]},{"header":{"parameterUnit":"m.s-1","parameterCategory":1,"la1":30.2991,"la2":30.254,"lo1":-89.0895,"lo2":-89.0444,"dy":0.0017,"dx":0.0017,"nx":28,"ny":28,"refTime":"2025-03-15T09:00:00:Z","depth":0,"parameterNumber":3,"parameterNumberName":"V-component_of_WINDS"},"data":[0,0,0,0,0,0,0,0,0,0,0,0,0,0,0,0,0,0,0,0,0,0,0,0,0,0,0,0,0,0,0,0,0,0,0,0,0,0,0,0,0,0,0,0,0,0,0,0,0,0,0,0,0,0,0,0,0,0,-2.1874,-2.1874,0,-2.1841,-2.184,-2.184,-2.181,-2.181,-2.181,-2.1809,-2.1771,-2.1771,-2.177,0,0,0,0,0,0,0,0,0,0,0,0,0,-2.1911,-2.1911,-2.1874,-2.1874,-2.1874,-2.1841,-2.184,-2.184,-2.181,-2.181,-2.181,-2.1809,-2.1772,-2.1771,-2.177,0,0,0,0,0,0,0,0,0,0,0,0,0,-2.1888,-2.1911,-2.1874,-2.1855,-2.1853,-2.1841,-2.184,-2.184,-2.181,-2.181,-2.1809,-2.1809,-2.1772,-2.1771,-2.177,-2.1773,0,0,-2.1767,-2.1766,0,0,0,0,0,0,0,0,-2.1889,-2.1887,-2.1858,-2.1856,-2.1854,-2.1829,-2.1839,-2.1817,-2.1811,-2.1827,-2.1809,-2.1809,-2.1791,-2.1788,-2.1783,-2.1771,-2.177,-2.1766,-2.1766,-2.1765,-2.1765,0,0,0,0,0,0,0,-2.1891,-2.1888,-2.1861,-2.1858,-2.1855,-2.1847,-2.1843,-2.1835,-2.1812,-2.1825,-2.1823,-2.1819,-2.179,-2.1784,-2.1782,-2.1769,-2.1767,-2.1766,-2.1765,-2.1764,-2.1759,-2.1759,0,0,0,0,0,0,-2.1896,-2.189,-2.1862,-2.186,-2.1871,-2.1847,-2.1843,-2.1838,-2.1812,-2.1807,-2.182,-2.1818,-2.1786,-2.1783,-2.178,-2.1782,-2.1765,-2.1764,-2.1764,-2.1758,-2.1759,-2.1759,0,0,0,0,0,0,-2.1897,-2.1894,-2.1863,-2.1874,-2.187,-2.1847,-2.1841,-2.1837,-2.1832,-2.1808,-2.1803,-2.1819,-2.1785,-2.1782,-2.1775,-2.178,-2.1764,-2.1763,-2.1757,-2.1758,-2.1759,-2.1786,0,0,0,0,0,0,-2.1898,-2.1894,-2.1896,-2.1874,-2.1869,-2.186,-2.1842,-2.1837,-2.183,-2.1828,-2.1805,-2.1801,-2.1785,-2.1777,-2.1774,-2.1779,-2.1762,-2.1757,-2.1758,-2.1759,-2.1785,-2.1788,-2.1791,0,0,0,0,0,-2.19,-2.1904,-2.1896,-2.1893,-2.1871,-2.186,-2.1857,-2.1839,-2.1831,-2.1832,-2.1817,-2.1802,-2.1781,-2.1777,-2.1773,-2.1777,-2.1756,-2.1758,-2.1759,-2.1784,-2.1787,-2.1791,0,0,0,0,0,0,-2.1926,-2.1901,-2.1892,-2.189,-2.1878,-2.1855,-2.1856,-2.1844,-2.1832,-2.183,-2.1807,-2.1803,-2.1799,-2.1787,-2.1783,-2.1779,-2.1767,-2.1767,-2.1787,-2.179,-2.1793,-2.1795,-2.1761,0,0,0,0,0,-2.1931,-2.1926,-2.1904,-2.1904,-2.1899,-2.1879,-2.1873,-2.1861,-2.1847,-2.1841,-2.1825,-2.1811,-2.1801,-2.1795,-2.1785,-2.1783,-2.1778,-2.1785,-2.1788,-2.179,-2.179,-2.1789,-2.1792,-2.1763,-2.1763,-2.1763,0,0,-2.1943,-2.1929,-2.1926,-2.1909,-2.1898,-2.1892,-2.1874,-2.1869,-2.1864,-2.1839,-2.1833,-2.1821,-2.1804,-2.18,-2.1798,-2.179,-2.1797,-2.1791,-2.1794,-2.1792,-2.179,-2.1793,-2.1796,-2.1763,-2.1763,-2.1763,0,0,-2.196,-2.1949,-2.1948,-2.1938,-2.1922,-2.1909,-2.1909,-2.1889,-2.188,-2.1873,-2.1855,-2.1849,-2.1832,-2.1821,-2.1813,-2.1827,-2.1813,-2.1825,-2.1839,-2.1838,-2.184,-2.1842,-2.1847,-2.1849,-2.1825,-2.1825,-2.1825,0,-2.1976,-2.1967,-2.1949,-2.1945,-2.1938,-2.1917,-2.1916,-2.1906,-2.1887,-2.1883,-2.1876,-2.1855,-2.1842,-2.1835,-2.1839,-2.1833,-2.1832,-2.1826,-2.1841,-2.1843,-2.1845,-2.1849,-2.1851,-2.1827,-2.1826,-2.1826,-2.1826,0,-2.1987,-2.1981,-2.1982,-2.1966,-2.1959,-2.1956,-2.1937,-2.1932,-2.1921,-2.1908,-2.1901,-2.1885,-2.1871,-2.1869,-2.1857,-2.1861,-2.1857,-2.1846,-2.1832,-2.1849,-2.1853,-2.1854,-2.1829,-2.1828,-2.1828,-2.1827,0,0,-2.2019,-2.1994,-2.1994,-2.1987,-2.1968,-2.1963,-2.1959,-2.1947,-2.1943,-2.1931,-2.1926,-2.1914,-2.1904,-2.1895,-2.1881,-2.188,-2.1893,-2.1869,-2.1868,-2.1874,-2.1896,-2.1904,-2.1906,-2.1884,-2.1884,-2.1884,-2.1897,0,-2.2033,-2.2026,-2.201,-2.2008,-2.2002,-2.1983,-2.1979,-2.1967,-2.1956,-2.1948,-2.1935,-2.1926,-2.1914,-2.1908,-2.1906,-2.1892,-2.1897,-2.189,-2.1879,-2.1878,-2.1883,-2.1908,-2.1916,-2.1929,-2.1898,-2.1899,-2.1899,0,-2.2048,-2.2039,-2.2036,-2.2018,-2.2015,-2.2013,-2.2,-2.1994,-2.198,-2.1971,-2.1962,-2.1947,-2.1942,-2.193,-2.1922,-2.1918,-2.1912,-2.1904,-2.1904,-2.1902,-2.1889,-2.1906,-2.1933,-2.1935,-2.1901,-2.1901,-2.1901,0,-2.2072,-2.2058,-2.2055,-2.2049,-2.2028,-2.2027,-2.2018,-2.2003,-2.1997,-2.1986,-2.1982,-2.197,-2.1963,-2.1954,-2.1936,-2.193,-2.193,-2.1917,-2.1922,-2.1922,-2.1922,-2.1922,-2.1948,-2.1919,-2.1919,-2.1919,-2.1919,0,-2.2089,-2.2088,-2.2065,-2.2063,-2.2061,-2.2043,-2.2042,-2.2031,-2.2018,-2.2013,-2.1996,-2.1991,-2.1968,-2.1961,-2.1947,-2.1942,-2.1939,-2.1932,-2.1928,-2.1933,-2.1934,-2.1928,-2.1927,-2.192,-2.192,-2.1919,-2.1919,0,-2.2115,-2.2099,-2.2094,-2.2076,-2.2071,-2.2071,-2.2054,-2.2051,-2.2039,-2.2032,-2.203,-2.201,-2.2,-2.1983,-2.1967,-2.1958,-2.1956,-2.195,-2.1961,-2.1959,-2.1965,-2.1965,-2.1988,-2.199,-2.196,-2.1961,-2.1961,0,-2.2126,-2.2126,-2.2107,-2.2103,-2.2095,-2.2089,-2.2083,-2.2065,-2.2059,-2.2043,-2.2042,-2.2031,-2.2022,-2.2007,-2.1991,-2.198,-2.1973,-2.1982,-2.1971,-2.1976,-2.1972,-2.1973,-2.1972,-2.1984,-2.1984,-2.1985,-2.1985,0,-2.2149,-2.2142,-2.2134,-2.2124,-2.2118,-2.2109,-2.2099,-2.2096,-2.2076,-2.207,-2.2061,-2.2054,-2.2039,-2.2029,-2.2015,-2.2005,-2.1991,-2.1989,-2.1989,-2.1994,-2.2001,-2.1997,-2.1968,-2.1988,-2.1988,-2.1988,-2.1987,-2.1987,-2.2168,-2.2166,-2.2153,-2.2146,-2.2137,-2.2128,-2.2124,-2.2112,-2.2104,-2.2092,-2.2081,-2.2073,-2.2059,-2.2039,-2.203,-2.2023,-2.2016,-2.2017,-2.2017,-2.2017,-2.202,-2.2003,-2.202,-2.202,-2.202,-2.202,-2.202,0,-2.219,-2.2181,-2.2174,-2.2161,-2.2155,-2.2144,-2.2132,-2.2128,-2.2121,-2.2109,-2.2101,-2.209,-2.208,-2.2064,-2.2052,-2.2049,-2.2043,-2.2047,-2.2047,-2.2044,-2.2026,-2.2027,-2.2052,-2.2052,-2.2052,-2.2052,-2.2052,-2.2052,-2.22,-2.2197,-2.2188,-2.218,-2.2171,-2.2163,-2.2158,-2.2149,-2.214,-2.2129,-2.2122,-2.2111,-2.2097,-2.2085,-2.2075,-2.207,-2.2067,-2.2073,-2.2066,-2.2049,-2.2046,-2.2043,-2.2043,-2.2072,-2.2072,-2.2085,-2.2085,-2.2085]}]]